This is the latest recevied weather packets stored in our database for station/object WAYLND-WX. If no packets are shown the sender has not sent any weather packets the latest 10 day(s).
| Time | Temp. | Humidity | Pressure | Rain* | Wind** | Luminosity | Snow |
|---|---|---|---|---|---|---|---|
| 1777838472 | 14.44° C | 53% | 983.4 hPa | 0 mm | - | - | - |
| 1777837542 | 13.89° C | 54% | 984.1 hPa | 0 mm | - | - | - |
| 1777836664 | 13.89° C | 54% | 984.1 hPa | 0 mm | - | - | - |
| 1777835743 | 13.89° C | 54% | 984.1 hPa | 0 mm | - | - | - |
| 1777834874 | 13.89° C | 54% | 984.1 hPa | 0 mm | - | - | - |
| 1777833943 | 14.44° C | 48% | 984.8 hPa | 0 mm | - | - | - |
| 1777833352 | 14.44° C | 48% | 984.8 hPa | 0 mm | - | - | - |
| 1777832142 | 14.44° C | 49% | 985 hPa | 0 mm | - | - | - |
| 1777831276 | 15° C | 49% | 985 hPa | 0 mm | - | - | - |
| 1777830341 | 14.44° C | 48% | 985.6 hPa | 0 mm | - | - | - |
| 1777829462 | 14.44° C | 47% | 984.9 hPa | 0 mm | - | - | - |
| 1777827671 | 14.44° C | 47% | 984.9 hPa | 0 mm | - | - | - |
| 1777826742 | 13.89° C | 49% | 985.4 hPa | 0 mm | - | - | - |
| 1777825859 | 13.33° C | 49% | 984.4 hPa | 0 mm | - | - | - |
| 1777824941 | 12.78° C | 49% | 984.4 hPa | 0 mm | - | - | - |
| 1777824079 | 13.33° C | 49% | 984.4 hPa | 0 mm | - | - | - |
| 1777823142 | 12.78° C | 52% | 985.7 hPa | 0 mm | - | - | - |
| 1777822258 | 12.78° C | 54% | 985.4 hPa | 0 mm | - | - | - |
| 1777821342 | 12.22° C | 54% | 985.4 hPa | 0 mm | - | - | - |
| 1777820475 | 12.22° C | 54% | 985.4 hPa | 0 mm | - | - | - |
| 1777819542 | 11.11° C | 56% | 985.2 hPa | 0 mm | - | - | - |
| 1777818664 | 10° C | 57% | 985.3 hPa | 0 mm | - | - | - |
| 1777817743 | 11.11° C | 57% | 985.3 hPa | 0 mm | - | - | - |
| 1777816879 | 11.11° C | 57% | 985.3 hPa | 0 mm | - | - | - |
| 1777815942 | 10.56° C | 69% | 985.8 hPa | 0 mm | - | - | - |
* Rain latest hour (hover to see other rain measurements)
** Current wind speed in m/s (hover to see current wind gust speed)